owner,sensor,date,latitude,longitude,vertical_datum,sea_water_practical_salinity,qcFlag 
DISL,ioos:station:DISL:PPTA:1,2016-02-01T00:00:00Z,30.2791,-87.5561,1.431,30.35,1111122 
DISL,ioos:station:DISL:PPTA:1,2016-02-01T00:30:00Z,30.2791,-87.5561,1.419,30.32,1111122 
DISL,ioos:station:DISL:PPTA:1,2016-02-01T01:00:00Z,30.2791,-87.5561,1.418,30.29,1111122 
DISL,ioos:station:DISL:PPTA:1,2016-02-01T14:30:00Z,30.2791,-87.5561,1.332,18.98,1111122 
DISL,ioos:station:DISL:PPTA:1,2016-02-01T15:00:00Z,30.2791,-87.5561,1.34,19.53,1111122 
DISL,ioos:station:DISL:PPTA:1,2016-02-01T15:30:00Z,30.2791,-87.5561,1.348,21.66,1111122 
DISL,ioos:station:DISL:PPTA:1,2016-02-01T16:00:00Z,30.2791,-87.5561,1.343,26.33,1111122 
DISL,ioos:station:DISL:PPTA:1,2016-02-01T16:30:00Z,30.2791,-87.5561,1.354,29.28,1111122 
DISL,ioos:station:DISL:PPTA:1,2016-02-01T17:00:00Z,30.2791,-87.5561,1.352,30.27,1111122 
DISL,ioos:station:DISL:PPTA:1,2016-02-01T17:30:00Z,30.2791,-87.5561,1.367,31.39,1111122 
DISL,ioos:station:DISL:PPTA:1,2016-02-01T18:00:00Z,30.2791,-87.5561,1.365,30.6,1111122 
DISL,ioos:station:DISL:PPTA:1,2016-02-01T18:30:00Z,30.2791,-87.5561,1.384,31.78,1111122 
DISL,ioos:station:DISL:PPTA:1,2016-02-01T19:00:00Z,30.2791,-87.5561,1.379,31.68,1111122 
DISL,ioos:station:DISL:PPTA:1,2016-02-01T19:30:00Z,30.2791,-87.5561,1.397,31.43,1111122 
DISL,ioos:station:DISL:PPTA:1,2016-02-01T20:00:00Z,30.2791,-87.5561,1.398,31.77,1111122 
DISL,ioos:station:DISL:PPTA:1,2016-02-01T20:30:00Z,30.2791,-87.5561,1.409,31.18,1111122 
DISL,ioos:station:DISL:PPTA:1,2016-02-01T21:00:00Z,30.2791,-87.5561,1.416,31.42,1111122 
DISL,ioos:station:DISL:PPTA:1,2016-02-01T21:30:00Z,30.2791,-87.5561,1.422,31.01,1111122 
DISL,ioos:station:DISL:PPTA:1,2016-02-01T22:00:00Z,30.2791,-87.5561,1.435,30.45,1111122 
DISL,ioos:station:DISL:PPTA:1,2016-02-01T22:30:00Z,30.2791,-87.5561,1.429,30.01,1111122 
DISL,ioos:station:DISL:PPTA:1,2016-02-01T23:00:00Z,30.2791,-87.5561,1.435,29.39,1111122 
DISL,ioos:station:DISL:PPTA:1,2016-02-01T23:30:00Z,30.2791,-87.5561,1.449,29.08,1111122 
DISL,ioos:station:DISL:PPTA:1,2016-02-02T00:00:00Z,30.2791,-87.5561,1.434,29.41,1111122 
DISL,ioos:station:DISL:PPTA:1,2016-02-02T00:30:00Z,30.2791,-87.5561,1.433,25.18,1111122 
DISL,ioos:station:DISL:PPTA:1,2016-02-02T01:00:00Z,30.2791,-87.5561,1.448,27.21,1111122 
DISL,ioos:station:DISL:PPTA:1,2016-02-02T01:30:00Z,30.2791,-87.5561,1.438,20.32,1111122 
DISL,ioos:station:DISL:PPTA:1,2016-02-02T02:00:00Z,30.2791,-87.5561,1.423,21.24,1111122 
DISL,ioos:station:DISL:PPTA:1,2016-02-02T02:30:00Z,30.2791,-87.5561,1.417,21.36,1111122 
DISL,ioos:station:DISL:PPTA:1,2016-02-02T03:00:00Z,30.2791,-87.5561,1.423,21.21,1111122 
DISL,ioos:station:DISL:PPTA:1,2016-02-02T03:30:00Z,30.2791,-87.5561,1.394,23.45,1111122 
DISL,ioos:station:DISL:PPTA:1,2016-02-02T04:00:00Z,30.2791,-87.5561,1.389,25.12,1111122 
DISL,ioos:station:DISL:PPTA:1,2016-02-02T04:30:00Z,30.2791,-87.5561,1.392,20.93,1111122 
DISL,ioos:station:DISL:PPTA:1,2016-02-02T05:00:00Z,30.2791,-87.5561,1.374,19.47,1111122 
DISL,ioos:station:DISL:PPTA:1,2016-02-02T05:30:00Z,30.2791,-87.5561,1.367,19.86,1111122 
DISL,ioos:station:DISL:PPTA:1,2016-02-02T06:00:00Z,30.2791,-87.5561,1.355,25.46,1111122 
DISL,ioos:station:DISL:PPTA:1,2016-02-02T14:30:00Z,30.2791,-87.5561,1.383,23.78,1111122 
DISL,ioos:station:DISL:PPTA:1,2016-02-02T15:00:00Z,30.2791,-87.5561,1.39,24.27,1111122 
DISL,ioos:station:DISL:PPTA:1,2016-02-02T15:30:00Z,30.2791,-87.5561,1.412,24.77,1111122 
DISL,ioos:station:DISL:PPTA:1,2016-02-02T16:00:00Z,30.2791,-87.5561,1.433,24.6,1111122 
DISL,ioos:station:DISL:PPTA:1,2016-02-02T17:00:00Z,30.2791,-87.5561,1.438,25.25,1111122 
DISL,ioos:station:DISL:PPTA:1,2016-02-02T17:30:00Z,30.2791,-87.5561,1.473,19.9,1111122 
DISL,ioos:station:DISL:PPTA:1,2016-02-02T18:00:00Z,30.2791,-87.5561,1.469,16.8,1111122 
DISL,ioos:station:DISL:PPTA:1,2016-02-02T18:30:00Z,30.2791,-87.5561,1.494,16.95,1111122 
DISL,ioos:station:DISL:PPTA:1,2016-02-02T19:00:00Z,30.2791,-87.5561,1.533,20.11,1111122 
DISL,ioos:station:DISL:PPTA:1,2016-02-02T19:30:00Z,30.2791,-87.5561,1.492,23.86,1111122 
DISL,ioos:station:DISL:PPTA:1,2016-02-02T20:00:00Z,30.2791,-87.5561,1.498,26.54,1111122 
DISL,ioos:station:DISL:PPTA:1,2016-02-02T20:30:00Z,30.2791,-87.5561,1.534,30.38,1111122 
DISL,ioos:station:DISL:PPTA:1,2016-02-02T21:00:00Z,30.2791,-87.5561,1.501,29.47,1111122 
DISL,ioos:station:DISL:PPTA:1,2016-02-02T21:30:00Z,30.2791,-87.5561,1.536,30.73,1111122 
DISL,ioos:station:DISL:PPTA:1,2016-02-02T22:00:00Z,30.2791,-87.5561,1.544,30.97,1111122 
DISL,ioos:station:DISL:PPTA:1,2016-02-02T22:30:00Z,30.2791,-87.5561,1.54,30.9,1111122 
DISL,ioos:station:DISL:PPTA:1,2016-02-02T23:00:00Z,30.2791,-87.5561,1.607,31.19,1111122 
DISL,ioos:station:DISL:PPTA:1,2016-02-02T23:30:00Z,30.2791,-87.5561,1.537,31.11,1111122 
DISL,ioos:station:DISL:PPTA:1,2016-02-03T17:30:00Z,30.2791,-87.5561,1.5,19.9,11111222 
DISL,ioos:station:DISL:PPTA:1,2016-02-03T18:00:00Z,30.2791,-87.5561,1.5,16.8,11111222 
DISL,ioos:station:DISL:PPTA:1,2016-02-03T18:30:00Z,30.2791,-87.5561,1.5,17.0,11111222 
DISL,ioos:station:DISL:PPTA:1,2016-02-03T19:00:00Z,30.2791,-87.5561,1.5,20.1,11111222 
DISL,ioos:station:DISL:PPTA:1,2016-02-03T19:30:00Z,30.2791,-87.5561,1.5,23.9,11111222 
DISL,ioos:station:DISL:PPTA:1,2016-02-03T20:00:00Z,30.2791,-87.5561,1.5,26.5,11111222 
DISL,ioos:station:DISL:PPTA:1,2016-02-03T20:30:00Z,30.2791,-87.5561,1.5,30.4,11111222 
DISL,ioos:station:DISL:PPTA:1,2016-02-03T21:00:00Z,30.2791,-87.5561,1.5,29.5,11111222 
DISL,ioos:station:DISL:PPTA:1,2016-02-03T21:30:00Z,30.2791,-87.5561,1.5,30.7,11111222 
DISL,ioos:station:DISL:PPTA:1,2016-02-03T22:00:00Z,30.2791,-87.5561,1.5,31.0,11111222 
DISL,ioos:station:DISL:PPTA:1,2016-02-03T22:30:00Z,30.2791,-87.5561,1.5,30.9,11111222 
DISL,ioos:station:DISL:PPTA:1,2016-02-03T23:00:00Z,30.2791,-87.5561,1.6,31.2,11111222 
DISL,ioos:station:DISL:PPTA:1,2016-02-03T23:30:00Z,30.2791,-87.5561,1.5,31.1,11111222 
DISL,ioos:station:DISL:PPTA:1,2016-02-04T00:00:00Z,30.2791,-87.5561,1.584,30.93,1111122 
DISL,ioos:station:DISL:PPTA:1,2016-02-04T00:30:00Z,30.2791,-87.5561,1.58,30.45,1111122 
DISL,ioos:station:DISL:PPTA:1,2016-02-04T01:00:00Z,30.2791,-87.5561,1.564,30.79,1111122 
DISL,ioos:station:DISL:PPTA:1,2016-02-04T01:30:00Z,30.2791,-87.5561,1.587,30.18,1111122 
DISL,ioos:station:DISL:PPTA:1,2016-02-04T02:00:00Z,30.2791,-87.5561,1.577,30.43,1111122 
DISL,ioos:station:DISL:PPTA:1,2016-02-04T02:30:00Z,30.2791,-87.5561,1.577,30.27,1111122 
DISL,ioos:station:DISL:PPTA:1,2016-02-04T03:00:00Z,30.2791,-87.5561,1.538,29.98,1111122 
DISL,ioos:station:DISL:PPTA:1,2016-02-04T03:30:00Z,30.2791,-87.5561,1.508,27.73,1111122 
DISL,ioos:station:DISL:PPTA:1,2016-02-04T04:00:00Z,30.2791,-87.5561,1.499,26.31,1111122 
DISL,ioos:station:DISL:PPTA:1,2016-02-04T04:30:00Z,30.2791,-87.5561,1.451,28.49,1111122 
DISL,ioos:station:DISL:PPTA:1,2016-02-04T05:00:00Z,30.2791,-87.5561,1.458,28.46,1111122 
DISL,ioos:station:DISL:PPTA:1,2016-02-04T05:30:00Z,30.2791,-87.5561,1.447,27.56,1111122 
DISL,ioos:station:DISL:PPTA:1,2016-02-04T06:00:00Z,30.2791,-87.5561,1.432,26.39,1111122 
DISL,ioos:station:DISL:PPTA:1,2016-02-04T06:30:00Z,30.2791,-87.5561,1.428,26.95,1111122 
DISL,ioos:station:DISL:PPTA:1,2016-02-04T07:00:00Z,30.2791,-87.5561,1.403,25.31,1111122 
DISL,ioos:station:DISL:PPTA:1,2016-02-04T07:30:00Z,30.2791,-87.5561,1.344,25.15,1111122 
DISL,ioos:station:DISL:PPTA:1,2016-02-04T08:00:00Z,30.2791,-87.5561,1.362,20.82,1111122 
DISL,ioos:station:DISL:PPTA:1,2016-02-04T08:30:00Z,30.2791,-87.5561,1.317,24.99,1111122 
DISL,ioos:station:DISL:PPTA:1,2016-02-04T09:00:00Z,30.2791,-87.5561,1.322,20.55,1111122 
DISL,ioos:station:DISL:PPTA:1,2016-02-04T09:30:00Z,30.2791,-87.5561,1.318,20.77,1111122 
DISL,ioos:station:DISL:PPTA:1,2016-02-04T10:00:00Z,30.2791,-87.5561,1.284,20.51,1111122 
DISL,ioos:station:DISL:PPTA:1,2016-02-04T10:30:00Z,30.2791,-87.5561,1.266,19.36,1111122 
DISL,ioos:station:DISL:PPTA:1,2016-02-04T11:00:00Z,30.2791,-87.5561,1.277,19.18,1111122 
DISL,ioos:station:DISL:PPTA:1,2016-02-04T11:30:00Z,30.2791,-87.5561,1.24,18.35,1111122 
DISL,ioos:station:DISL:PPTA:1,2016-02-04T12:00:00Z,30.2791,-87.5561,1.272,17.37,1111122 
DISL,ioos:station:DISL:PPTA:1,2016-02-04T12:30:00Z,30.2791,-87.5561,1.256,17.21,1111122 
DISL,ioos:station:DISL:PPTA:1,2016-02-04T13:00:00Z,30.2791,-87.5561,1.264,16.9,1111122 
DISL,ioos:station:DISL:PPTA:1,2016-02-04T13:30:00Z,30.2791,-87.5561,1.248,16.82,1111122 
DISL,ioos:station:DISL:PPTA:1,2016-02-04T14:00:00Z,30.2791,-87.5561,1.262,16.49,1111122 
DISL,ioos:station:DISL:PPTA:1,2016-02-04T14:30:00Z,30.2791,-87.5561,1.281,16.3,1111122 
DISL,ioos:station:DISL:PPTA:1,2016-02-04T15:00:00Z,30.2791,-87.5561,1.254,16.57,1111122 
DISL,ioos:station:DISL:PPTA:1,2016-02-04T15:30:00Z,30.2791,-87.5561,1.287,22.83,1111122 
DISL,ioos:station:DISL:PPTA:1,2016-02-04T16:00:00Z,30.2791,-87.5561,1.326,14.9,1111122 
DISL,ioos:station:DISL:PPTA:1,2016-02-04T16:30:00Z,30.2791,-87.5561,1.285,15.68,1111122 
DISL,ioos:station:DISL:PPTA:1,2016-02-04T17:00:00Z,30.2791,-87.5561,1.304,14.73,1111122 
DISL,ioos:station:DISL:PPTA:1,2016-02-04T17:30:00Z,30.2791,-87.5561,1.262,15.33,1111122 
DISL,ioos:station:DISL:PPTA:1,2016-02-04T18:00:00Z,30.2791,-87.5561,1.275,15.33,1111122 
DISL,ioos:station:DISL:PPTA:1,2016-02-04T18:30:00Z,30.2791,-87.5561,1.298,18.14,1111122 
DISL,ioos:station:DISL:PPTA:1,2016-02-04T19:00:00Z,30.2791,-87.5561,1.288,27.53,1111122 
DISL,ioos:station:DISL:PPTA:1,2016-02-04T19:30:00Z,30.2791,-87.5561,1.302,29.83,1111122 
DISL,ioos:station:DISL:PPTA:1,2016-02-04T20:00:00Z,30.2791,-87.5561,1.326,29.71,1111122 
DISL,ioos:station:DISL:PPTA:1,2016-02-04T20:30:00Z,30.2791,-87.5561,1.322,30.37,1111122 
DISL,ioos:station:DISL:PPTA:1,2016-02-04T21:00:00Z,30.2791,-87.5561,1.325,30.89,1111122 
DISL,ioos:station:DISL:PPTA:1,2016-02-04T21:30:00Z,30.2791,-87.5561,1.354,31.47,1111122 
DISL,ioos:station:DISL:PPTA:1,2016-02-04T22:00:00Z,30.2791,-87.5561,1.326,31.49,1111122 
DISL,ioos:station:DISL:PPTA:1,2016-02-04T22:30:00Z,30.2791,-87.5561,1.336,31.0,1111122 
DISL,ioos:station:DISL:PPTA:1,2016-02-04T23:00:00Z,30.2791,-87.5561,1.363,31.65,1111122 
DISL,ioos:station:DISL:PPTA:1,2016-02-04T23:30:00Z,30.2791,-87.5561,1.353,31.58,1111122 
DISL,ioos:station:DISL:PPTA:1,2016-02-05T00:00:00Z,30.2791,-87.5561,1.341,31.69,1111122 
DISL,ioos:station:DISL:PPTA:1,2016-02-05T00:30:00Z,30.2791,-87.5561,1.356,31.76,1111122 
DISL,ioos:station:DISL:PPTA:1,2016-02-05T01:00:00Z,30.2791,-87.5561,1.31,31.87,1111122 
DISL,ioos:station:DISL:PPTA:1,2016-02-05T01:30:00Z,30.2791,-87.5561,1.305,31.83,1111122 
DISL,ioos:station:DISL:PPTA:1,2016-02-05T02:00:00Z,30.2791,-87.5561,1.312,28.59,1111122 
DISL,ioos:station:DISL:PPTA:1,2016-02-05T02:30:00Z,30.2791,-87.5561,1.29,21.13,1111122 
DISL,ioos:station:DISL:PPTA:1,2016-02-05T03:00:00Z,30.2791,-87.5561,1.288,23.41,1111122 
DISL,ioos:station:DISL:PPTA:1,2016-02-05T03:30:00Z,30.2791,-87.5561,1.247,25.55,1111122 
DISL,ioos:station:DISL:PPTA:1,2016-02-05T04:00:00Z,30.2791,-87.5561,1.246,28.27,1111122 
DISL,ioos:station:DISL:PPTA:1,2016-02-05T04:30:00Z,30.2791,-87.5561,1.21,26.67,1111122 
DISL,ioos:station:DISL:PPTA:1,2016-02-05T05:00:00Z,30.2791,-87.5561,1.175,26.48,1111122 
DISL,ioos:station:DISL:PPTA:1,2016-02-05T05:30:00Z,30.2791,-87.5561,1.154,26.07,1111122 
DISL,ioos:station:DISL:PPTA:1,2016-02-05T06:00:00Z,30.2791,-87.5561,1.139,23.76,1111122 
DISL,ioos:station:DISL:PPTA:1,2016-02-05T06:30:00Z,30.2791,-87.5561,1.122,23.14,1111122 
DISL,ioos:station:DISL:PPTA:1,2016-02-05T07:00:00Z,30.2791,-87.5561,1.093,22.65,1111122 
DISL,ioos:station:DISL:PPTA:1,2016-02-05T07:30:00Z,30.2791,-87.5561,1.08,21.55,1111122 
DISL,ioos:station:DISL:PPTA:1,2016-02-05T08:00:00Z,30.2791,-87.5561,1.045,20.36,1111122 
DISL,ioos:station:DISL:PPTA:1,2016-02-05T08:30:00Z,30.2791,-87.5561,1.035,18.86,1111122 
DISL,ioos:station:DISL:PPTA:1,2016-02-05T09:00:00Z,30.2791,-87.5561,1.018,17.94,1111122 
DISL,ioos:station:DISL:PPTA:1,2016-02-05T09:30:00Z,30.2791,-87.5561,1.005,17.21,1111122 
DISL,ioos:station:DISL:PPTA:1,2016-02-05T10:00:00Z,30.2791,-87.5561,0.988,16.32,1111122 
DISL,ioos:station:DISL:PPTA:1,2016-02-05T10:30:00Z,30.2791,-87.5561,0.992,15.92,1111122 
DISL,ioos:station:DISL:PPTA:1,2016-02-05T11:00:00Z,30.2791,-87.5561,0.984,15.51,1111122 
DISL,ioos:station:DISL:PPTA:1,2016-02-05T11:30:00Z,30.2791,-87.5561,0.987,15.23,1111122 
DISL,ioos:station:DISL:PPTA:1,2016-02-05T12:00:00Z,30.2791,-87.5561,0.98,14.97,1111122 
DISL,ioos:station:DISL:PPTA:1,2016-02-05T12:30:00Z,30.2791,-87.5561,0.995,14.89,1111122 
DISL,ioos:station:DISL:PPTA:1,2016-02-05T13:00:00Z,30.2791,-87.5561,1.002,14.75,1111122 
DISL,ioos:station:DISL:PPTA:1,2016-02-05T13:30:00Z,30.2791,-87.5561,0.998,14.51,1111122 
DISL,ioos:station:DISL:PPTA:1,2016-02-05T14:00:00Z,30.2791,-87.5561,1.022,14.49,1111122 
DISL,ioos:station:DISL:PPTA:1,2016-02-05T14:30:00Z,30.2791,-87.5561,1.022,14.52,1111122 
DISL,ioos:station:DISL:PPTA:1,2016-02-05T15:00:00Z,30.2791,-87.5561,1.023,14.55,1111122 
DISL,ioos:station:DISL:PPTA:1,2016-02-05T15:30:00Z,30.2791,-87.5561,1.028,14.55,1111122 
DISL,ioos:station:DISL:PPTA:1,2016-02-05T16:00:00Z,30.2791,-87.5561,1.036,14.42,1111122 
DISL,ioos:station:DISL:PPTA:1,2016-02-05T16:30:00Z,30.2791,-87.5561,1.039,14.05,1111122 
DISL,ioos:station:DISL:PPTA:1,2016-02-05T17:00:00Z,30.2791,-87.5561,1.058,14.04,1111122 
DISL,ioos:station:DISL:PPTA:1,2016-02-05T17:30:00Z,30.2791,-87.5561,1.063,13.72,1111122 
DISL,ioos:station:DISL:PPTA:1,2016-02-05T18:00:00Z,30.2791,-87.5561,1.066,13.49,1111122 
DISL,ioos:station:DISL:PPTA:1,2016-02-05T18:30:00Z,30.2791,-87.5561,1.063,13.51,1111122 
DISL,ioos:station:DISL:PPTA:1,2016-02-05T19:00:00Z,30.2791,-87.5561,1.053,20.9,1111122 
DISL,ioos:station:DISL:PPTA:1,2016-02-05T19:30:00Z,30.2791,-87.5561,1.059,27.67,1111122 
DISL,ioos:station:DISL:PPTA:1,2016-02-05T20:00:00Z,30.2791,-87.5561,1.075,30.01,1111122 
DISL,ioos:station:DISL:PPTA:1,2016-02-05T20:30:00Z,30.2791,-87.5561,1.083,30.55,1111122 
DISL,ioos:station:DISL:PPTA:1,2016-02-05T21:00:00Z,30.2791,-87.5561,1.112,30.26,1111122 
DISL,ioos:station:DISL:PPTA:1,2016-02-05T21:30:00Z,30.2791,-87.5561,1.132,30.74,1111122 
DISL,ioos:station:DISL:PPTA:1,2016-02-05T22:00:00Z,30.2791,-87.5561,1.137,31.14,1111122 
DISL,ioos:station:DISL:PPTA:1,2016-02-05T22:30:00Z,30.2791,-87.5561,1.164,31.16,1111122 
DISL,ioos:station:DISL:PPTA:1,2016-02-05T23:00:00Z,30.2791,-87.5561,1.161,31.39,1111122 
DISL,ioos:station:DISL:PPTA:1,2016-02-05T23:30:00Z,30.2791,-87.5561,1.164,31.14,1111122 
DISL,ioos:station:DISL:PPTA:1,2016-02-06T00:00:00Z,30.2791,-87.5561,1.184,31.24,1111122 
DISL,ioos:station:DISL:PPTA:1,2016-02-06T00:30:00Z,30.2791,-87.5561,1.178,31.01,1111122 
DISL,ioos:station:DISL:PPTA:1,2016-02-06T01:00:00Z,30.2791,-87.5561,1.176,31.16,1111122 
DISL,ioos:station:DISL:PPTA:1,2016-02-06T01:30:00Z,30.2791,-87.5561,1.183,30.95,1111122 
DISL,ioos:station:DISL:PPTA:1,2016-02-06T02:00:00Z,30.2791,-87.5561,1.194,31.22,1111122 
DISL,ioos:station:DISL:PPTA:1,2016-02-06T02:30:00Z,30.2791,-87.5561,1.192,31.21,1111122 
DISL,ioos:station:DISL:PPTA:1,2016-02-06T03:00:00Z,30.2791,-87.5561,1.186,31.08,1111122 
DISL,ioos:station:DISL:PPTA:1,2016-02-06T03:30:00Z,30.2791,-87.5561,1.175,31.09,1111122 
DISL,ioos:station:DISL:PPTA:1,2016-02-06T04:00:00Z,30.2791,-87.5561,1.148,31.01,1111122 
DISL,ioos:station:DISL:PPTA:1,2016-02-06T04:30:00Z,30.2791,-87.5561,1.132,30.66,1111122 
DISL,ioos:station:DISL:PPTA:1,2016-02-06T05:00:00Z,30.2791,-87.5561,1.114,26.64,1111122 
DISL,ioos:station:DISL:PPTA:1,2016-02-06T05:30:00Z,30.2791,-87.5561,1.084,27.73,1111122 
DISL,ioos:station:DISL:PPTA:1,2016-02-06T06:00:00Z,30.2791,-87.5561,1.06,29.99,1111122 
DISL,ioos:station:DISL:PPTA:1,2016-02-06T06:30:00Z,30.2791,-87.5561,1.06,27.89,1111122 
DISL,ioos:station:DISL:PPTA:1,2016-02-06T07:00:00Z,30.2791,-87.5561,1.02,27.31,1111122 
DISL,ioos:station:DISL:PPTA:1,2016-02-06T07:30:00Z,30.2791,-87.5561,1.005,26.94,1111122 
DISL,ioos:station:DISL:PPTA:1,2016-02-06T08:00:00Z,30.2791,-87.5561,1.002,26.84,1111122 
DISL,ioos:station:DISL:PPTA:1,2016-02-06T08:30:00Z,30.2791,-87.5561,0.957,26.01,1111122 
DISL,ioos:station:DISL:PPTA:1,2016-02-06T09:00:00Z,30.2791,-87.5561,0.96,26.23,1111122 
DISL,ioos:station:DISL:PPTA:1,2016-02-06T09:30:00Z,30.2791,-87.5561,0.964,25.98,1111122 
DISL,ioos:station:DISL:PPTA:1,2016-02-06T10:00:00Z,30.2791,-87.5561,0.957,23.3,1111122 
DISL,ioos:station:DISL:PPTA:1,2016-02-06T10:30:00Z,30.2791,-87.5561,0.96,22.64,1111122 
DISL,ioos:station:DISL:PPTA:1,2016-02-06T11:00:00Z,30.2791,-87.5561,0.959,20.1,1111122 
DISL,ioos:station:DISL:PPTA:1,2016-02-06T11:30:00Z,30.2791,-87.5561,0.962,20.18,1111122 
DISL,ioos:station:DISL:PPTA:1,2016-02-06T12:00:00Z,30.2791,-87.5561,0.976,20.8,1111122 
DISL,ioos:station:DISL:PPTA:1,2016-02-06T12:30:00Z,30.2791,-87.5561,0.972,19.85,1111122 
DISL,ioos:station:DISL:PPTA:1,2016-02-06T13:00:00Z,30.2791,-87.5561,0.961,19.23,1111122 
DISL,ioos:station:DISL:PPTA:1,2016-02-06T13:30:00Z,30.2791,-87.5561,0.953,19.66,1111122 
DISL,ioos:station:DISL:PPTA:1,2016-02-06T14:00:00Z,30.2791,-87.5561,0.984,15.7,1111122 
DISL,ioos:station:DISL:PPTA:1,2016-02-06T14:30:00Z,30.2791,-87.5561,1.005,17.64,1111122 
DISL,ioos:station:DISL:PPTA:1,2016-02-06T15:00:00Z,30.2791,-87.5561,1.009,17.35,1111122 
DISL,ioos:station:DISL:PPTA:1,2016-02-06T15:30:00Z,30.2791,-87.5561,1.024,15.93,1111122 
DISL,ioos:station:DISL:PPTA:1,2016-02-06T16:00:00Z,30.2791,-87.5561,1.02,16.43,1111122 
DISL,ioos:station:DISL:PPTA:1,2016-02-06T16:30:00Z,30.2791,-87.5561,1.033,16.67,1111122 
DISL,ioos:station:DISL:PPTA:1,2016-02-06T17:00:00Z,30.2791,-87.5561,1.007,24.38,1111122 
DISL,ioos:station:DISL:PPTA:1,2016-02-06T17:30:00Z,30.2791,-87.5561,1.033,28.59,1111122 
DISL,ioos:station:DISL:PPTA:1,2016-02-06T18:00:00Z,30.2791,-87.5561,1.071,30.63,1111122 
DISL,ioos:station:DISL:PPTA:1,2016-02-06T18:30:00Z,30.2791,-87.5561,1.083,30.16,1111122 
DISL,ioos:station:DISL:PPTA:1,2016-02-06T19:00:00Z,30.2791,-87.5561,1.089,30.22,1111122 
DISL,ioos:station:DISL:PPTA:1,2016-02-06T19:30:00Z,30.2791,-87.5561,1.086,30.93,1111122 
DISL,ioos:station:DISL:PPTA:1,2016-02-06T20:00:00Z,30.2791,-87.5561,1.132,30.52,1111122 
DISL,ioos:station:DISL:PPTA:1,2016-02-06T20:30:00Z,30.2791,-87.5561,1.127,31.15,1111122 
DISL,ioos:station:DISL:PPTA:1,2016-02-06T21:00:00Z,30.2791,-87.5561,1.137,31.03,1111122 
DISL,ioos:station:DISL:PPTA:1,2016-02-06T21:30:00Z,30.2791,-87.5561,1.187,30.97,1111122 
DISL,ioos:station:DISL:PPTA:1,2016-02-06T22:00:00Z,30.2791,-87.5561,1.192,31.15,1111122 
DISL,ioos:station:DISL:PPTA:1,2016-02-06T22:30:00Z,30.2791,-87.5561,1.186,30.54,1111122 
DISL,ioos:station:DISL:PPTA:1,2016-02-06T23:00:00Z,30.2791,-87.5561,1.231,30.72,1111122 
DISL,ioos:station:DISL:PPTA:1,2016-02-06T23:30:00Z,30.2791,-87.5561,1.226,30.58,1111122 
DISL,ioos:station:DISL:PPTA:1,2016-02-07T00:00:00Z,30.2791,-87.5561,1.251,30.41,1111122 
DISL,ioos:station:DISL:PPTA:1,2016-02-07T00:30:00Z,30.2791,-87.5561,1.258,30.38,1111122 
DISL,ioos:station:DISL:PPTA:1,2016-02-07T01:00:00Z,30.2791,-87.5561,1.27,30.27,1111122 
DISL,ioos:station:DISL:PPTA:1,2016-02-07T01:30:00Z,30.2791,-87.5561,1.28,29.58,1111122 
DISL,ioos:station:DISL:PPTA:1,2016-02-07T02:00:00Z,30.2791,-87.5561,1.282,29.7,1111122 
DISL,ioos:station:DISL:PPTA:1,2016-02-07T02:30:00Z,30.2791,-87.5561,1.272,29.94,1111122 
DISL,ioos:station:DISL:PPTA:1,2016-02-07T03:00:00Z,30.2791,-87.5561,1.244,29.55,1111122 
DISL,ioos:station:DISL:PPTA:1,2016-02-07T03:30:00Z,30.2791,-87.5561,1.25,29.22,1111122 
DISL,ioos:station:DISL:PPTA:1,2016-02-07T04:00:00Z,30.2791,-87.5561,1.257,29.54,1111122 
DISL,ioos:station:DISL:PPTA:1,2016-02-07T04:30:00Z,30.2791,-87.5561,1.211,29.03,1111122 
DISL,ioos:station:DISL:PPTA:1,2016-02-07T05:00:00Z,30.2791,-87.5561,1.202,28.62,1111122 
DISL,ioos:station:DISL:PPTA:1,2016-02-07T05:30:00Z,30.2791,-87.5561,1.185,27.85,1111122 
DISL,ioos:station:DISL:PPTA:1,2016-02-07T06:00:00Z,30.2791,-87.5561,1.139,27.52,1111122 
DISL,ioos:station:DISL:PPTA:1,2016-02-07T06:30:00Z,30.2791,-87.5561,1.114,27.91,1111122 
DISL,ioos:station:DISL:PPTA:1,2016-02-07T07:00:00Z,30.2791,-87.5561,1.118,28.68,1111122 
DISL,ioos:station:DISL:PPTA:1,2016-02-07T07:30:00Z,30.2791,-87.5561,1.082,28.61,1111122 
DISL,ioos:station:DISL:PPTA:1,2016-02-07T08:00:00Z,30.2791,-87.5561,1.06,25.08,1111122 
DISL,ioos:station:DISL:PPTA:1,2016-02-07T08:30:00Z,30.2791,-87.5561,1.033,24.14,1111122 
DISL,ioos:station:DISL:PPTA:1,2016-02-07T09:00:00Z,30.2791,-87.5561,1.038,24.31,1111122 
DISL,ioos:station:DISL:PPTA:1,2016-02-07T09:30:00Z,30.2791,-87.5561,1.015,23.16,1111122 
DISL,ioos:station:DISL:PPTA:1,2016-02-07T10:00:00Z,30.2791,-87.5561,0.995,23.21,1111122 
DISL,ioos:station:DISL:PPTA:1,2016-02-07T10:30:00Z,30.2791,-87.5561,0.982,21.89,1111122 
DISL,ioos:station:DISL:PPTA:1,2016-02-07T11:00:00Z,30.2791,-87.5561,0.982,21.74,1111122 
DISL,ioos:station:DISL:PPTA:1,2016-02-07T11:30:00Z,30.2791,-87.5561,0.968,20.24,1111122 
DISL,ioos:station:DISL:PPTA:1,2016-02-07T12:00:00Z,30.2791,-87.5561,0.941,19.58,1111122 
DISL,ioos:station:DISL:PPTA:1,2016-02-07T12:30:00Z,30.2791,-87.5561,0.921,18.88,1111122 
DISL,ioos:station:DISL:PPTA:1,2016-02-07T13:00:00Z,30.2791,-87.5561,0.933,17.77,1111122 
DISL,ioos:station:DISL:PPTA:1,2016-02-07T13:30:00Z,30.2791,-87.5561,0.931,17.56,1111122 
DISL,ioos:station:DISL:PPTA:1,2016-02-07T14:00:00Z,30.2791,-87.5561,0.919,17.02,1111122 
DISL,ioos:station:DISL:PPTA:1,2016-02-07T14:30:00Z,30.2791,-87.5561,0.944,16.25,1111122 
DISL,ioos:station:DISL:PPTA:1,2016-02-07T15:00:00Z,30.2791,-87.5561,0.985,15.51,1111122 
DISL,ioos:station:DISL:PPTA:1,2016-02-07T15:30:00Z,30.2791,-87.5561,0.995,17.94,1111122 
DISL,ioos:station:DISL:PPTA:1,2016-02-07T16:00:00Z,30.2791,-87.5561,1.004,14.32,1111122 
DISL,ioos:station:DISL:PPTA:1,2016-02-07T16:30:00Z,30.2791,-87.5561,0.993,17.07,1111122 
DISL,ioos:station:DISL:PPTA:1,2016-02-07T17:00:00Z,30.2791,-87.5561,1.019,14.15,1111122 
DISL,ioos:station:DISL:PPTA:1,2016-02-07T17:30:00Z,30.2791,-87.5561,1.009,13.74,1111122 
DISL,ioos:station:DISL:PPTA:1,2016-02-07T18:00:00Z,30.2791,-87.5561,0.995,13.9,1111122 
DISL,ioos:station:DISL:PPTA:1,2016-02-07T18:30:00Z,30.2791,-87.5561,0.986,13.66,1111122 
DISL,ioos:station:DISL:PPTA:1,2016-02-07T19:00:00Z,30.2791,-87.5561,1.011,14.97,1111122 
DISL,ioos:station:DISL:PPTA:1,2016-02-07T19:30:00Z,30.2791,-87.5561,1.017,25.96,1111122 
DISL,ioos:station:DISL:PPTA:1,2016-02-07T20:00:00Z,30.2791,-87.5561,1.02,26.94,1111122 
DISL,ioos:station:DISL:PPTA:1,2016-02-07T20:30:00Z,30.2791,-87.5561,1.043,29.02,1111122 
DISL,ioos:station:DISL:PPTA:1,2016-02-07T21:00:00Z,30.2791,-87.5561,1.071,29.24,1111122 
DISL,ioos:station:DISL:PPTA:1,2016-02-07T21:30:00Z,30.2791,-87.5561,1.092,29.52,1111122 
DISL,ioos:station:DISL:PPTA:1,2016-02-07T22:00:00Z,30.2791,-87.5561,1.121,30.11,1111122 
DISL,ioos:station:DISL:PPTA:1,2016-02-07T22:30:00Z,30.2791,-87.5561,1.13,29.94,1111122 
DISL,ioos:station:DISL:PPTA:1,2016-02-07T23:00:00Z,30.2791,-87.5561,1.151,30.31,1111122 
DISL,ioos:station:DISL:PPTA:1,2016-02-07T23:30:00Z,30.2791,-87.5561,1.176,30.11,1111122 
DISL,ioos:station:DISL:PPTA:1,2016-02-08T00:00:00Z,30.2791,-87.5561,1.175,30.78,1111122 
DISL,ioos:station:DISL:PPTA:1,2016-02-08T00:30:00Z,30.2791,-87.5561,1.193,30.39,1111122 
DISL,ioos:station:DISL:PPTA:1,2016-02-08T01:00:00Z,30.2791,-87.5561,1.218,30.56,1111122 
DISL,ioos:station:DISL:PPTA:1,2016-02-08T01:30:00Z,30.2791,-87.5561,1.242,30.54,1111122 
DISL,ioos:station:DISL:PPTA:1,2016-02-08T02:00:00Z,30.2791,-87.5561,1.254,30.35,1111122 
DISL,ioos:station:DISL:PPTA:1,2016-02-08T02:30:00Z,30.2791,-87.5561,1.27,30.37,1111122 
DISL,ioos:station:DISL:PPTA:1,2016-02-08T03:00:00Z,30.2791,-87.5561,1.273,30.53,1111122 
DISL,ioos:station:DISL:PPTA:1,2016-02-08T03:30:00Z,30.2791,-87.5561,1.271,30.61,1111122 
DISL,ioos:station:DISL:PPTA:1,2016-02-08T04:00:00Z,30.2791,-87.5561,1.256,30.76,1111122 
DISL,ioos:station:DISL:PPTA:1,2016-02-08T04:30:00Z,30.2791,-87.5561,1.249,30.86,1111122 
DISL,ioos:station:DISL:PPTA:1,2016-02-08T05:00:00Z,30.2791,-87.5561,1.244,30.93,1111122 